STARLINK-5736, 55584

Orbit data source: Space-Track

STARLINK-5736, 55584 is a payload satellite owned by SpaceX/Seattle (US) in LEO that was launched on Sun, 12 Feb 2023 UTC via an FALCON 9 launch vehicle from the Air Force Eastern Test Range (AFETR). Payload-class satellites include a variety of spacecraft equipped with specific instruments for various scientific and technological missions. These include communications satellites like Starlink; space stations such as the ISS; scientific satellites like the Hubble; Earth observation satellites from companies like Planet Labs, Umbra, and HawkEye 360; GPS; miniature CubeSats for education and research; and military/defense satellites.

Loading next visibility...
Identifier
55584, 2023-020R
Orbit
LEO
Country
Flag of USUS
Related business
Manufacturer
SpaceX/Seattle
Mission
Operational Commercial Communications
Bus & Motor
STARLINK, Unknown motor
Mass
305 kg wet, ~290 kg dry
Launch date (UTC)
2023-02-12 (4 years ago)
Launch vehicle
FALCON 9
Launch site
Air Force Eastern Test Range (AFETR)
Object type
Payload
Rocket body
Debris
Shape & HBR
Box + 1 Pan, 10.1 m
Radar Cross Section
13.562 m², Large (>1 m²)

Expand to show TLE details & history
Last TLE update: 22 hours ago

TLE from 22 hours ago
0 STARLINK-5736
1 55584U 23020R   26263.51444025  .00000106  00000-0  13364-4 0  9996
2 55584  43.0018 345.3686 0001194 268.4480  91.6235 15.27577608198706
Epoch: 2026-09-20T12:20Z
TLE epoch observation values (Epoch: 2026-09-20T12:20:47.637Z)
Latitude
-0.00002°
Longitude
160.76257°
Altitude
482.855 km
Speed
7.626 km/s
True Right ascension
23h 01m 28s
True Declination
0° 00' 00"
Sunlit
Object was in full shadow at epoch
Visualization orbit readout
Latitude
Unknown
Longitude
Unknown
Altitude
Unknown
Speed
Unknown
Apparent Right ascension
Unknown
Apparent Declination
Unknown
Sunlit
N/A
Visualization observer readout
Local Sidereal Time
03:14:05
Azimuth
Unknown
Elevation
Unknown
Doppler factor
Unknown
Orbital elements
Apogee altitude
485.821 km
Perigee altitude
484.182 km
Semi-major axis
6,863.138 km
Eccentricity
0.00012
Inclination
43.0018°
RAAN
345.3686°
Arg. of periapsis
268.448°
True anomaly
91.63718°
Mean anomaly
91.6235°
Eccentric anomaly
91.63034°
Mean motion
3.81732 °/min
Orbital period
94.31 mins
BSTAR
0.000013364
Loading maneuver chart data...
Computing Atmospheric mass density...
Loading historical data...
Loading historical data...
Loading historical data...
Loading historical data...
Loading historical data...
Loading historical data...
Loading historical data...

Documentation

Showing up to 5 results
|